Date,TemperatureHighF,TemperatureAvgF,TemperatureLowF,DewpointHighF,DewpointAvgF,DewpointLowF,HumidityHigh,HumidityAvg,HumidityLow,PressureMaxIn,PressureMinIn,WindSpeedMaxMPH,WindSpeedAvgMPH,GustSpeedMaxMPH,PrecipitationSumIn
2013-1-1,21,5,-19,19,4,-20,99,94,88,0.00,40.00,14,7,19,0.00
2013-1-2,25,17,8,25,16,7,100,96,90,0.00,40.00,18,10,23,0.00
2013-1-3,15,8,-2,14,6,-4,98,92,79,0.00,40.00,16,11,22,0.00
2013-1-4,25,18,6,18,14,3,99,86,73,0.00,40.00,15,8,17,0.00
2013-1-5,20,10,-2,16,8,-2,98,95,85,0.00,40.00,17,7,22,0.00
2013-1-6,20,12,5,18,11,3,100,97,90,0.00,40.00,16,9,21,0.00
2013-1-7,35,25,19,25,21,18,97,87,66,0.00,40.00,16,11,20,0.00
2013-1-10,36,34,33,32,30,27,99,89,66,0.00,40.00,21,14,30,0.00
2013-1-11,35,34,26,34,34,25,99,99,99,0.00,40.00,16,11,21,0.00
2013-1-12,24,7,0,23,3,-4,100,85,75,0.00,40.00,29,18,37,0.00
2013-1-13,6,1,-4,3,-3,-8,91,84,78,0.00,40.00,15,9,18,0.00
2013-1-14,13,4,-7,3,0,-9,93,84,63,0.00,40.00,11,7,14,0.00
2013-1-15,24,13,1,14,8,0,96,82,66,0.00,40.00,22,11,26,0.00
2013-1-16,33,20,-2,32,15,-8,99,82,61,0.00,40.00,23,14,32,0.01
2013-1-17,17,8,-3,10,2,-8,84,74,63,0.00,40.00,16,7,18,0.01
2013-1-18,38,26,14,28,22,10,99,86,67,0.00,40.00,16,10,21,0.00
2013-1-19,36,17,-3,32,13,-8,99,86,71,0.00,40.00,37,19,50,0.00
2013-1-20,5,-2,-8,1,-6,-15,83,80,75,0.00,40.00,22,13,27,0.00
2013-1-21,-7,-12,-15,-13,-16,-18,86,79,75,0.00,40.00,19,12,27,0.00
2013-1-22,4,-7,-21,0,-12,-24,87,81,71,0.00,40.00,9,5,12,0.00
2013-1-23,7,0,-12,5,-5,-17,93,79,65,0.00,40.00,27,12,34,0.00
2013-1-24,12,-1,-12,3,-8,-17,78,74,65,0.00,40.00,20,11,26,0.00
2013-1-25,15,6,-6,12,1,-9,87,80,69,0.00,40.00,27,15,37,0.00
2013-1-26,19,6,-10,12,2,-11,89,82,74,0.00,40.00,16,8,21,0.00
2013-1-27,31,25,15,30,22,10,100,87,75,0.00,40.00,13,7,17,0.00
2013-1-28,34,32,30,34,32,30,100,99,99,0.00,40.00,12,6,16,0.00
2013-1-29,31,26,22,30,25,19,99,96,90,0.00,40.00,19,13,25,0.00
2013-1-30,22,11,2,19,8,0,92,86,81,0.00,40.00,24,18,32,0.00
2013-1-31,2,-7,-13,0,-12,-17,85,80,76,0.00,40.00,26,18,32,0.00
2013-2-1,1,-8,-20,-2,-12,-22,89,81,68,0.00,40.00,13,7,16,0.00
2013-2-2,10,2,-10,7,-2,-13,92,86,67,0.00,40.00,15,5,22,0.00
2013-2-3,15,8,1,7,4,0,93,85,67,0.00,40.00,17,7,22,0.00
2013-2-4,17,7,-6,16,3,-8,98,84,66,0.00,40.00,17,8,22,0.00
2013-2-5,28,16,1,27,14,0,99,91,80,0.00,40.00,20,11,27,0.01
2013-2-6,25,16,6,21,14,5,97,92,84,0.00,40.00,16,8,26,0.00
2013-2-7,24,21,10,23,19,10,100,94,84,0.00,40.00,15,10,20,0.00
2013-2-8,24,15,1,23,14,0,99,93,83,0.00,40.00,22,10,28,0.00
2013-2-9,30,27,24,30,26,23,100,99,99,0.00,40.00,24,16,29,0.01
2013-2-10,29,27,25,28,26,25,99,99,99,0.00,40.00,20,15,26,0.02
2013-2-11,27,20,11,27,18,10,99,92,83,0.00,40.00,26,18,32,0.01
2013-2-12,32,21,12,21,17,12,99,87,61,0.00,40.00,14,9,17,0.00
2013-2-13,40,29,18,32,26,18,100,90,64,0.00,40.00,11,7,17,0.01
2013-2-14,30,17,2,30,12,-2,99,83,57,0.00,40.00,18,12,22,0.01
2013-2-15,14,4,-7,7,1,-8,96,89,70,0.00,40.00,14,9,17,0.00
2013-2-16,12,9,5,9,7,5,98,91,85,0.00,40.00,11,6,12,0.00
2013-2-17,29,20,6,28,18,5,99,92,86,0.00,40.00,21,14,27,0.00
2013-2-18,31,14,-1,30,12,-4,100,91,84,0.00,40.00,29,20,37,0.00
2013-2-19,0,-5,-11,-2,-9,-15,88,82,76,0.00,40.00,27,17,34,0.00
2013-2-20,15,-2,-16,3,-8,-18,89,78,51,0.00,40.00,9,5,11,0.00
2013-2-21,18,10,-1,16,5,-6,90,79,68,0.00,40.00,15,9,18,0.00
2013-2-22,26,21,15,21,19,14,99,93,82,0.00,40.00,15,8,19,0.00
2013-2-23,33,19,2,21,16,1,100,87,60,0.00,40.00,12,4,15,0.00
2013-2-24,30,15,-1,28,11,-2,99,87,62,0.00,40.00,6,2,10,0.00
2013-2-25,33,21,6,28,19,5,99,91,68,0.00,40.00,5,2,7,0.00
2013-2-26,28,21,17,28,21,16,100,99,97,0.00,40.00,11,6,14,0.00
2013-2-27,35,22,15,25,19,12,97,86,68,0.00,40.00,19,12,26,0.00
2013-2-28,29,24,12,25,21,12,98,89,76,0.00,40.00,13,6,15,0.00
2013-3-1,27,18,5,19,15,3,99,86,68,0.00,40.00,11,6,14,0.00
2013-3-2,26,12,-6,18,8,-8,97,85,67,0.00,40.00,11,5,14,0.00
2013-3-3,29,24,16,21,16,12,92,73,54,0.00,40.00,25,12,33,0.00
2013-3-4,25,23,22,25,22,16,100,97,72,0.00,40.00,22,14,29,0.01
2013-3-5,29,24,18,27,23,16,99,93,80,0.00,40.00,13,9,20,0.01
2013-3-6,31,20,5,21,16,1,100,88,58,0.00,40.00,9,4,12,0.00
2013-3-7,27,16,-3,21,13,-4,99,88,71,0.00,40.00,16,8,21,0.00
2013-3-8,34,25,14,32,23,14,100,91,71,0.00,40.00,12,7,15,0.00
2013-3-9,35,33,32,34,33,32,100,99,98,0.00,40.00,16,8,20,0.02
2013-3-10,32,26,24,32,24,21,99,90,85,0.00,40.00,21,13,25,0.01
2013-3-11,25,21,16,23,17,14,93,84,75,0.00,40.00,18,11,24,0.00
2013-3-12,24,19,12,18,16,10,92,86,76,0.00,40.00,24,13,32,0.00
2013-3-13,31,17,3,19,12,3,97,82,52,0.00,40.00,12,6,14,0.00
2013-3-14,46,31,21,32,26,19,99,83,49,0.00,40.00,15,5,19,0.00
2013-3-15,32,29,22,32,28,21,100,99,99,0.00,40.00,11,6,15,0.00
2013-3-16,21,13,2,21,10,-2,99,87,75,0.00,40.00,16,9,18,0.00
2013-3-17,25,12,-4,21,7,-6,93,81,71,0.00,40.00,23,12,34,0.00
2013-3-18,31,16,8,30,15,5,99,94,90,0.00,40.00,34,24,43,0.01
2013-3-19,14,8,1,7,1,-2,92,76,54,0.00,40.00,26,18,33,0.01
2013-3-20,15,7,-1,7,1,-4,86,76,65,0.00,40.00,23,17,29,0.00
2013-3-21,25,10,-5,12,3,-6,92,74,51,0.00,40.00,7,4,8,0.00
2013-3-22,40,17,0,19,10,0,97,76,39,0.00,40.00,7,4,9,0.00
2013-3-23,31,20,7,23,17,5,96,86,68,0.00,40.00,13,7,16,0.00
2013-3-24,32,26,18,28,24,18,100,92,78,0.00,40.00,16,10,20,0.00
2013-3-25,32,27,19,25,22,16,96,83,65,0.00,40.00,19,13,22,0.00
2013-3-26,34,22,9,23,17,9,99,85,64,0.00,40.00,12,5,14,0.00
2013-3-27,37,26,9,28,19,9,99,76,59,0.00,40.00,11,4,12,0.00
2013-3-28,39,31,19,30,25,18,96,81,69,0.00,40.00,13,7,17,0.00
2013-3-29,43,37,30,39,34,30,99,91,81,0.00,40.00,12,8,15,0.00
2013-3-30,40,36,32,39,36,32,99,99,98,0.00,40.00,24,10,27,0.00
2013-3-31,33,28,18,32,22,12,99,79,62,0.00,40.00,28,19,34,0.00
2013-4-1,28,20,13,19,14,10,92,79,62,0.00,40.00,17,12,22,0.00
2013-4-2,32,24,14,21,16,14,99,75,50,0.00,40.00,10,6,14,0.00
2013-4-3,44,33,16,37,28,16,99,83,71,0.00,40.00,26,14,32,0.00
2013-4-4,42,35,27,36,30,25,99,81,65,0.00,40.00,22,13,32,0.00
2013-4-5,35,30,23,34,27,21,98,88,65,0.00,40.00,20,11,27,0.00
2013-4-6,45,38,34,39,35,32,99,88,78,0.00,40.00,20,11,24,0.00
2013-4-7,44,38,31,39,35,30,99,91,76,0.00,40.00,13,7,17,0.00
2013-4-8,41,38,36,41,38,36,100,98,96,0.00,40.00,16,10,20,0.00
2013-4-9,36,31,26,36,25,19,99,77,61,0.00,40.00,22,14,30,0.00
2013-4-10,37,34,31,28,24,21,90,67,54,0.00,40.00,22,15,27,0.00
2013-4-11,34,30,27,30,28,25,99,93,70,0.00,40.00,24,18,34,0.01
2013-4-12,33,30,27,30,29,27,99,93,84,0.00,40.00,17,10,21,0.01
2013-4-13,37,31,27,28,26,21,99,82,58,0.00,40.00,12,8,17,0.01
2013-4-14,31,29,27,30,27,25,99,92,83,0.00,40.00,31,17,39,0.00
2013-4-15,36,34,31,32,31,30,99,92,82,0.00,40.00,22,-1,30,0.00
2013-4-16,37,32,27,30,28,27,99,85,70,0.00,40.00,21,10,26,0.00
2013-4-17,37,34,29,34,31,28,99,91,82,0.00,40.00,19,9,26,0.00
2013-4-18,32,31,30,32,30,30,99,99,99,0.00,40.00,26,14,35,0.05
2013-4-19,35,30,25,28,24,18,100,77,57,0.00,40.00,24,19,34,0.06
2013-4-20,36,28,14,23,19,14,100,71,44,0.00,40.00,13,7,17,0.00
2013-4-21,44,37,30,41,35,21,99,94,67,0.00,40.00,24,16,34,0.00
2013-4-22,36,32,28,34,30,27,100,93,68,0.00,40.00,16,9,25,0.02
2013-4-23,35,28,17,27,21,16,97,78,57,0.00,40.00,17,12,22,0.01
2013-4-24,47,35,25,37,30,25,100,83,63,0.00,40.00,22,12,29,0.01
2013-4-25,50,39,27,34,30,27,99,74,47,0.00,40.00,18,10,24,0.01
2013-4-26,65,52,37,46,39,32,99,65,35,0.00,40.00,16,7,20,0.00
2013-4-27,75,57,36,46,40,36,98,58,30,0.00,40.00,16,8,21,0.00
2013-4-28,76,60,49,54,48,36,95,68,38,0.00,40.00,18,11,25,0.00
2013-4-29,73,56,36,52,41,36,99,63,29,0.00,40.00,14,7,21,0.00
2013-4-30,65,59,48,61,47,34,94,67,35,0.00,40.00,32,17,43,0.00
2013-5-1,47,38,33,37,30,27,87,74,63,0.00,40.00,22,14,29,0.00
2013-5-2,46,36,29,32,29,25,97,76,54,0.00,40.00,23,12,34,0.00
2013-5-3,44,36,25,36,28,25,99,77,55,0.00,40.00,18,11,26,0.00
2013-5-4,40,36,34,39,36,34,99,99,99,0.00,40.00,19,12,22,0.00
2013-5-5,53,46,38,52,45,37,99,94,84,0.00,40.00,11,6,17,0.00
2013-5-6,73,60,37,52,47,37,99,67,45,0.00,40.00,11,4,17,0.00
2013-5-7,78,65,43,55,46,41,99,56,30,0.00,40.00,16,6,24,0.00
2013-5-8,64,60,55,63,54,41,99,85,47,0.00,40.00,14,7,17,0.00
2013-5-9,57,52,44,55,49,41,99,90,77,0.00,40.00,21,11,26,0.01
2013-5-10,67,50,32,45,32,-100,98,60,24,0.00,40.00,22,8,30,0.00
2013-5-11,50,43,36,41,29,-100,86,59,38,0.00,40.00,32,19,45,0.00
2013-5-12,57,44,28,32,26,23,89,53,30,0.00,40.00,17,8,27,0.00
2013-5-13,84,60,38,54,40,25,69,48,36,0.00,40.00,27,12,34,0.00
2013-5-14,94,72,51,57,49,43,81,46,25,0.00,40.00,31,14,40,0.00
2013-5-15,81,66,47,52,48,45,93,56,31,0.00,40.00,21,10,29,0.00
2013-5-16,80,63,48,50,29,-100,81,49,33,0.00,40.00,21,10,27,0.00
2013-5-17,68,60,55,59,44,-100,99,71,37,0.00,40.00,19,13,26,0.00
2013-5-18,77,67,56,73,65,55,99,93,82,0.00,40.00,17,11,22,0.00
2013-5-19,78,69,63,70,66,63,99,92,64,0.00,40.00,23,11,30,0.00
2013-5-20,68,63,59,64,61,55,99,91,72,0.00,40.00,21,13,29,0.00
2013-5-21,58,50,46,57,49,46,99,99,99,0.00,40.00,18,14,24,0.01
2013-5-22,52,48,45,50,47,45,99,97,87,0.00,40.00,27,16,36,0.01
2013-5-23,63,52,42,45,39,32,99,64,33,0.00,40.00,16,9,23,0.00
2013-5-24,66,53,39,54,42,34,99,69,39,0.00,40.00,21,10,26,0.00
2013-5-25,60,54,52,54,53,50,99,93,81,0.00,40.00,21,15,27,0.00
2013-5-26,57,53,50,52,48,45,92,81,74,0.00,40.00,22,14,30,0.00
2013-5-27,62,58,54,57,55,52,99,90,76,0.00,40.00,17,11,23,0.00
2013-5-28,63,58,54,59,57,54,100,95,83,0.00,40.00,12,6,17,0.00
2013-5-29,74,64,51,72,62,50,99,94,79,0.00,40.00,21,10,44,0.00
2013-5-30,75,68,63,68,64,61,99,88,70,0.00,40.00,24,15,35,0.00
2013-5-31,66,63,56,64,55,54,99,77,65,0.00,40.00,26,13,34,0.00
2013-6-1,66,56,48,59,52,46,99,87,77,0.00,40.00,21,10,28,0.00
2013-6-2,65,55,43,50,43,39,99,66,42,0.00,40.00,13,7,26,0.00
2013-6-3,67,57,40,52,45,39,99,66,44,0.00,40.00,15,6,22,0.00
2013-6-4,60,56,50,55,52,48,99,89,63,0.00,40.00,19,11,24,0.00
2013-6-5,64,57,52,61,55,52,99,92,68,0.00,40.00,17,9,24,0.00
2013-6-6,57,54,50,54,52,50,99,93,84,0.00,40.00,12,8,16,0.00
2013-6-7,66,58,52,54,52,50,99,80,58,0.00,40.00,7,3,10,0.00
2013-6-8,66,60,50,57,54,50,99,80,63,0.00,40.00,15,9,21,0.00
2013-7-10,78,74,65,59,56,52,79,54,41,0.00,40.00,12,6,19,0.00
2013-7-11,81,69,56,63,59,54,98,72,48,0.00,40.00,17,7,23,0.00
2013-7-12,87,77,70,70,62,57,68,60,53,0.00,40.00,22,15,30,0.00
2013-7-13,78,72,69,68,66,63,89,81,61,0.00,40.00,17,10,24,0.00
2013-7-14,74,70,66,68,64,61,94,81,73,0.00,40.00,11,6,16,0.00
2013-7-16,88,82,70,72,69,64,94,67,47,0.00,40.00,17,10,21,0.00
2013-7-17,90,79,69,73,70,66,92,73,50,0.00,40.00,13,7,19,0.00
2013-7-18,90,82,72,72,71,68,92,70,52,0.00,40.00,22,12,30,0.00
2013-7-19,81,75,63,72,63,57,94,67,44,0.00,40.00,17,10,24,0.00
2013-7-22,80,74,60,68,59,55,87,60,51,0.00,40.00,19,13,28,0.00
2013-7-23,76,65,53,55,53,50,96,68,39,0.00,40.00,10,5,14,0.00
2013-7-24,79,69,58,61,56,50,94,64,38,0.00,40.00,11,5,14,0.00
2013-7-25,77,68,58,64,61,57,98,80,54,0.00,40.00,16,6,23,0.00
2013-7-26,66,60,50,59,52,46,93,75,50,0.00,40.00,21,11,29,0.00
2013-7-27,69,55,43,48,45,43,96,70,39,0.00,40.00,18,8,28,0.00
2013-7-28,73,59,44,54,48,43,93,67,39,0.00,40.00,12,5,19,0.00
2013-7-29,74,61,47,63,54,46,98,78,46,0.00,40.00,11,4,19,0.00
2013-7-30,74,65,60,64,61,59,99,88,65,0.00,40.00,7,-16,9,0.00
2013-7-31,78,68,55,64,42,-100,101,69,37,0.00,40.00,18,-10,29,0.00
2013-8-1,81,64,49,57,53,48,97,71,38,0.00,40.00,10,4,18,0.00
2013-8-2,76,65,53,57,53,46,92,67,37,0.00,40.00,10,5,16,0.00
2013-8-3,77,63,49,55,49,43,93,65,31,0.00,40.00,10,-8,17,0.00
2013-8-4,75,62,48,59,52,46,95,71,42,0.00,40.00,9,4,14,0.00
2013-8-5,80,68,61,64,62,59,98,81,56,0.00,40.00,16,7,24,0.00
2013-8-6,82,67,53,70,61,52,99,82,54,0.00,40.00,16,-14,21,0.01
2013-8-7,73,63,55,61,55,46,98,77,39,0.00,40.00,9,5,13,0.01
2013-8-8,74,64,54,63,57,54,96,79,56,0.00,40.00,9,4,16,0.00
2013-8-9,72,64,50,57,52,46,97,66,44,0.00,40.00,17,8,23,0.00
2013-8-10,76,63,49,61,54,48,97,74,46,0.00,40.00,6,2,10,0.00
2013-8-11,78,68,59,63,59,57,93,74,48,0.00,40.00,8,3,12,0.00
2013-8-12,77,64,53,59,54,50,94,73,40,0.00,40.00,12,6,20,0.00
2013-10-27,55,42,28,32,28,25,88,64,41,0.00,40.00,9,7,16,0.00
2013-10-28,33,16,33,27,-36,-100,77,76,75,0.00,40.00,12,9,17,0.00
2013-10-30,42,42,42,-100,-100,-100,101,101,100,0.00,40.00,1,1,2,0.00
2013-11-2,-200,0,200,-100,-100,-100,0,0,100,0.00,40.00,6,6,7,0.00
2013-11-3,50,44,37,34,34,34,88,70,53,0.00,40.00,26,16,35,0.00
2013-11-4,44,44,44,32,32,32,63,63,63,0.00,40.00,15,15,21,0.00
2013-11-9,-200,0,200,-100,-100,-100,0,0,100,0.00,40.00,17,17,25,0.00
2013-11-10,36,35,34,28,27,27,82,75,69,0.00,40.00,14,9,20,0.00
2013-11-11,19,17,17,10,8,7,68,63,62,0.00,40.00,18,13,23,0.00